This is the latest recevied weather packets stored in our database for station/object IZ1DME-3. If no packets are shown the sender has not sent any weather packets the latest 10 day(s).
| Time | Temp. | Humidity | Pressure | Rain* | Wind** | Luminosity | Snow |
|---|---|---|---|---|---|---|---|
| 1777393774 | 18.33° C | 60% | 1015.9 hPa | - | - | - | - |
| 1777392274 | 18.33° C | 59% | 1016.1 hPa | - | - | - | - |
| 1777390774 | 18.33° C | 61% | 1016.1 hPa | - | - | - | - |
| 1777389274 | 17.78° C | 63% | 1016.3 hPa | - | - | - | - |
| 1777387774 | 17.78° C | 64% | 1016.4 hPa | - | - | - | - |
| 1777386274 | 18.33° C | 63% | 1016.6 hPa | - | - | - | - |
| 1777384774 | 18.33° C | 63% | 1016.7 hPa | - | - | - | - |
| 1777383274 | 18.33° C | 63% | 1017 hPa | - | - | - | - |
| 1777381774 | 17.78° C | 65% | 1017.3 hPa | - | - | - | - |
| 1777380268 | 18.33° C | 64% | 1017.4 hPa | - | - | - | - |
| 1777378774 | 18.33° C | 64% | 1017.4 hPa | - | - | - | - |
| 1777377274 | 18.33° C | 64% | 1017.4 hPa | - | - | - | - |
| 1777375775 | 18.33° C | 65% | 1017.6 hPa | - | - | - | - |
| 1777374274 | 17.78° C | 66% | 1018 hPa | - | - | - | - |
| 1777372776 | 17.78° C | 68% | 1017.9 hPa | - | - | - | - |
| 1777371274 | 17.22° C | 69% | 1018.1 hPa | - | - | - | - |
| 1777369774 | 17.78° C | 69% | 1018 hPa | - | - | - | - |
| 1777368274 | 16.67° C | 71% | 1018.1 hPa | - | - | - | - |
| 1777366774 | 16.11° C | 74% | 1018.1 hPa | - | - | - | - |
| 1777365274 | 16.11° C | 75% | 1018 hPa | - | - | - | - |
| 1777363774 | 15.56° C | 75% | 1017.9 hPa | - | - | - | - |
| 1777362274 | 15.56° C | 75% | 1017.9 hPa | - | - | - | - |
| 1777360774 | 15.56° C | 73% | 1018 hPa | - | - | - | - |
| 1777359274 | 15.56° C | 72% | 1017.9 hPa | - | - | - | - |
| 1777357774 | 15.56° C | 67% | 1017.7 hPa | - | - | - | - |
* Rain since midnight (hover to see other rain measurements)
** Current wind speed in m/s (hover to see current wind gust speed)